Regional Weather Roundup
Issued by NWS

Home | Current Version | Previous Version | Text Only | Print | Product List | Glossary On
Versions: 1 2 3 4 5 6 7 8 9 10 11 12 13 14 15 16 17 18 19 20 21 22 23 24 25 26 27 28 29 30 31 32 33 34 35 36 37 38 39 40 41 42 43 44 45 46 47 48 49 50
000
ASHW40 PHFO 010610
RWRHI

WEATHER ROUNDUP FOR HAWAII
NATIONAL WEATHER SERVICE HONOLULU HI
800 PM HST TUE SEP 30 2014

THIS IS AN AUTOMATED REPORT THAT HAS NOT BEEN QUALITY CONTROLLED.

NOTE..."FAIR" INDICATES FEW OR NO CLOUDS BELOW 12,000 FEET WITH NO
SIGNIFICANT WEATHER AND/OR OBSTRUCTIONS TO VISIBILITY.

* - THESE SITES REPORT LIMITED FIELDS

HIZ001>004-010700-
KAUAI-NIIHAU-

CITY           SKY/WX    TMP DP  RH WIND       PRES   REMARKS
LIHUE APT      PTCLDY    77  71  82 W6        29.94R
PORT ALLEN*      N/A     77 N/A N/A NE5         N/A
POIPU*           N/A     77 N/A N/A N2          N/A
PRINCEVILLE*   NOT AVBL
KOKOLE POINT*  NOT AVBL
MOLOAA DAIRY*  NOT AVBL
WAIMEA HTS*    NOT AVBL
PUU OPAE*      NOT AVBL
PUU LUA*       NOT AVBL
MAKAHA RIDGE*  NOT AVBL
$$

HIZ005>011-010700-
OAHU-

CITY           SKY/WX    TMP DP  RH WIND       PRES   REMARKS
HONOLULU       MOCLDY    80  71  74 NE6       29.94R
KALAELOA       PTCLDY    76  74  93 CALM      29.95R
KANEOHE MCB    MOCLDY    77  74  90 SW3       29.95R
WHEELER FIELD  PTCLDY    72  70  94 CALM      30.00R
BELLOWS*       NOT AVBL
KAHUKU*        NOT AVBL
WHEELER*       NOT AVBL
WAIANAE HARBOR NOT AVBL
DILLINGHAM*      N/A     77  72  83 S2          N/A
KAHUKU TRN*      N/A     81  79  94 SE3G12      N/A
KAWAILOA*      NOT AVBL
KII*             N/A     79  73  83 SE10        N/A
MAKUA RANGE*     N/A     77  70  78 SE5         N/A
OAHU FOREST NW NOT AVBL
SCHOFIELD BRK*   N/A     75  72  88 MISG        N/A
SCHOFIELD S*   NOT AVBL
WAIANAE VLY*   NOT AVBL
KUAOKALA*      NOT AVBL
HONOULIUULI*   NOT AVBL
MOKUOLOE IS*     N/A    N/A N/A N/A MISG        N/A
PALEHUA*       NOT AVBL
WAIAWA PHB*    NOT AVBL
$$

HIZ012>013-010700-
MOLOKAI-

CITY           SKY/WX    TMP DP  RH WIND       PRES   REMARKS
MOLOKAI AIRPT  NOT AVBL
KALAUPAPA      NOT AVBL
MAKAPULAPAI*   NOT AVBL
MOLOKAI 1*     NOT AVBL
PUU ALII*      NOT AVBL
$$

HIZ016-010700-
KAHOOLAWE-

CITY           SKY/WX    TMP DP  RH WIND       PRES   REMARKS
KAHOOLAWE*     NOT AVBL
HAKIOAWA*      NOT AVBL
HONOKANAIA*      N/A     78  70  77 N3        29.95R
KANELOA*         N/A     77  70  78 NE6       29.16R
KEALIALALO*    NOT AVBL
LUA MAKIKA*    NOT AVBL
$$

HIZ014>015-010700-
LANAI-

CITY           SKY/WX    TMP DP  RH WIND       PRES   REMARKS
LANAI CITY     FAIR      73  73 100 NE12      30.00R
LANAI 1*       NOT AVBL
$$

HIZ017>028-010700-
MAUI-

CITY           SKY/WX    TMP DP  RH WIND       PRES   REMARKS
KAHULUI        PTCLDY    78  71  79 NE7       29.94R
KAPALUA-W MAUI NOT AVBL
HANA AIRPORT   PTCLDY    73  72  94 CALM      29.98S
HANA*          NOT AVBL
HALEAKALA SUMM   N/A     45  36  70 NE15        N/A
MAALAEA BAY*   NOT AVBL
HALEAKALA*     NOT AVBL
KAUPO GAP*     NOT AVBL
KULA 1*          N/A     54  53  97 E3          N/A
$$

HIZ023>026-010700-
BIG ISLAND OF HAWAII COAST AND LOWER SLOPES-

CITY           SKY/WX    TMP DP  RH WIND       PRES   REMARKS
KAILUA KONA    MOCLDY    82  72  71 SE14      29.91R
HILO           PTCLDY    77  72  84 CALM      29.95R
HONOKAA*       NOT AVBL
KAWAIHAE MWT*  NOT AVBL
KAWAIHAE*        N/A     82 N/A N/A W2          N/A
SOUTH POINT*   NOT AVBL
UPOLU AIRPORT* NOT AVBL
KAMUELA*       MOCLDY    66  64  94 NE9       30.06S
HAKALAU*         N/A     48  45  87 SW3         N/A
KALOKO-HONOKO* NOT AVBL
PALI 2*          N/A     68  -9   4 NE8         N/A
KEALAKOMO*       N/A     79  70  73 NE9         N/A
KAUPULEHU*     NOT AVBL
KAPAPALA*        N/A     69  68  95 CALM        N/A
LOWER KAHUKU*  NOT AVBL
PUHE CS*       NOT AVBL
PUHO CS*       NOT AVBL
PTA KEAMUKU*     N/A     64  63  94 NE7         N/A
WAIKOLOA*      NOT AVBL
$$

HIZ027>028-010700-
BIG ISLAND OF HAWAII INTERIOR AND SUMMMITS-

CITY           SKY/WX    TMP DP  RH WIND       PRES   REMARKS
BRADSHAW FIELD NOT AVBL
MK VISITOR CEN NOT AVBL
MAUNA KEA*       N/A     36  16  44 N2          N/A
MAUNA LOA*     NOT AVBL
MAUNA LOA 1*   NOT AVBL
PTA KIPUKA*      N/A    N/A N/A N/A NW3G9       N/A
PTA RANGE 17*    N/A     72  70  94 W2          N/A
PTA WEST*        N/A     64  63  94 SW2         N/A
NENE CABIN*    NOT AVBL
AHUMOA*        NOT AVBL
PTA PORTABLE*  NOT AVBL
PUU MALI*      NOT AVBL
$$

HIC003-010700-
NORTHWEST ISLANDS-

CITY           SKY/WX    TMP DP  RH WIND       PRES   REMARKS
MIDWAY ISLAND  CLEAR     79  66  65 CALM      29.90R
MIDWAY NOS*    NOT AVBL
FRENCH FRIGATE NOT AVBL
$$

PHZ110>124-180-010700-
BUOY REPORTS

STATION/POSITION TIME  TEMP    WIND        PRES    WAVE   SWELL
                       AIR SEA DIR/SP/G            HT/PER HT/DIR
                 (UTC) (F)     (DEG/KT/KT) (MB)    (FT/S) (FT/D)
BUOY 51001       NOT AVBL
BUOY 51101       NOT AVBL
BUOY 51100       0600   80 81  110/  8/ 10 1015.0R
BUOY 51003       0500   82 84  100/  8/ 10 1012.3R   6/16   5
BUOY 51004       0516   80 81   90/ 16/ 17 1012.4R   6/17   5/160
BARBERS PT BUOY  NOT AVBL
WAIMEA BAY BUOY  0600      83                N/A     5/18   3/300
KAILUA BAY BUOY  0600      82                N/A     5/12   3/360
LANAI BUOY       NOT AVBL
BARBERS PT 2     0600      83                N/A     6/17   5/270
PAUWELA MAUI     0600      81                N/A     5/18   3/320
HILO             0600      82                N/A     5/ 8   2/ 60
KANEOHE BAY BUOY NOT AVBL
HANALEI KAUAI    NOT AVBL
KAHULUI HARBOR   0600   80 82   30/  9/ 13 1013.6R
HONOLULU HARBOR  0600   78      70/  3/  4 1014.1R
KILO NALU        NOT AVBL
HILO HARBOR      0600   79     210/  1/  2 1013.7R
MOKUOLOE         0600      84              1014.2R
NAWILIWILI       0600      83                N/A
WHOTS BUOY       NOT AVBL
BUOY 51028       NOT AVBL
$$

......................KEY........................................
  SKY/WX - SKY CONDITIONS/PRESENT WEATHER
  TMP    - TEMPERATURE IN FAHRENHEIT
  DWPT   - DEWPOINT IN FAHRENHEIT
  RH     - RELATIVE HUMIDITY IN PERCENT
  WIND   - DIRECTION AND SPEED /MPH FOR ISLANDS...KTS FOR BUOYS/
  PRES   - MEAN SEA LEVEL PRESSURE IN INCHES OF HG
  VSB    - VISIBILITY IN MILES
  HX     - HEAT INDEX
  WCI    - WIND CHILL INDEX
  VRB    - VARIABLE WIND DIRECTION
  N/A    - NOT AVAILABLE



USA.gov is the U.S. government's official web portal to all federal, state and local government web resources and services.